Tracking 18945 objects as of 20-Jan-2018
HD Live streaming from Space Station
objects crossing your sky now

MOLNIYA 1-81

Track MOLNIYA 1-81 now!
MOLNIYA 1-81 is classified as:


NORAD ID: 21426
Int'l Code: 1991-043A
Perigee: 2,197.3 km
Apogee: 38,176.2 km
Inclination: 63.7 °
Period: 717.9 minutes
Semi major axis: 26557 km
RCS: 14.841 m2 (large)
Launch date: June 18, 1991
Source: Commonwealth of Independent States (former USSR) (CIS)
Launch site: TYURATAM MISSILE AND SPACE COMPLEX (TTMTR)
aabbcc
Your satellite tracking list
Your tracking list is empty




NASA's NSSDC Master Catalog

Two Line Element Set (TLE):
1 21426U 91043A   18016.47227745 +.00000154 +00000-0 +00000-0 0  9996
2 21426 063.6574 172.5094 6773699 279.0406 015.5508 02.00593222194802
Source of the keplerian elements: AFSPC